Fargo, ND

1:02 PM CST on February 21, 2018 (GMT -0600)
Hector International

Weather History for KFAR - May, 2013

Change the Weather History Date:

Monday, May 20, 2013

  Actual Average Record
Temperature  
Mean Temperature 60 °F 58 °F  
Max Temperature 64 °F 71 °F 91 °F (1955)
Min Temperature 55 °F 46 °F 25 °F (1969)
Degree Days  
Heating Degree Days 5 7  
Month to date heating degree days 208 206  
Since 1 July heating degree days 9200 8662  
Cooling Degree Days 0 1  
Month to date cooling degree days 21 16  
Year to date cooling degree days 21 19  
Growing Degree Days 9 (Base 50)    
Moisture  
Dew Point 56 °F    
Average Humidity 86    
Maximum Humidity 93    
Minimum Humidity 78    
Precipitation  
Precipitation 0.57 in 0.09 in 1.36 in (1908)
Month to date precipitation 2.13 1.71  
Year to date precipitation 7.87 5.71  
Snow  
Snow 0.00 in 0.00 in 1.20 in (1931)
Month to date snowfall 0.0 0.0  
Since 1 July snowfall 68.4 50.4  
Snow Depth 0.00 in    
Sea Level Pressure  
Sea Level Pressure 29.48 in    
Wind  
Wind Speed 12 mph (ENE)    
Max Wind Speed 21 mph    
Max Gust Speed 26 mph    
Visibility 6 miles    
Events Rain    
T = Trace of Precipitation, MM = Missing Value Source: NWS Daily Summary

Daily Weather History Graph

Daily Weather History Graph

Search for Another Location

Airport or City:

Trip Planner

Search our weather history database for the weather conditions in past years. The results will help you decide how hot, cold, wet, or windy it might be!

Date:

Astronomy

May. 20, 2013 Rise Set
Actual Time 5:46 AM CDT 9:02 PM CDT
Civil Twilight 5:09 AM CDT 9:39 PM CDT
Nautical Twilight 4:21 AM CDT 10:27 PM CDT
Astronomical Twilight 3:21 AM CDT 11:28 PM CDT
Moon 3:53 PM CDT (5/20) 3:01 AM CDT (5/20)
Length of Visible Light 16h 29m
Length of Day
15h 15m
Waxing Gibbous, 75% of the Moon is Illuminated
May 20
Waxing Gibbous
May 24
Full
May 31
Last Quarter
Jun 8
New
Jun 16
First Quarter

Hourly Weather History & Observations

Time (CDT) Temp. Dew Point Humidity Pressure Visibility Wind Dir Wind Speed Gust Speed Precip Events Conditions
12:53 AM 64.0 °F 57.9 °F 80% 29.56 in 10.0 mi East 17.3 mph 26.5 mph N/A   Overcast
1:09 AM 62.6 °F 57.2 °F 82% 29.57 in 10.0 mi East 15.0 mph - 0.00 in   Overcast
1:43 AM 62.6 °F 57.2 °F 82% 29.57 in 5.0 mi East 13.8 mph - 0.01 in Rain Light Rain
1:53 AM 62.1 °F 57.0 °F 84% 29.56 in 9.0 mi East 11.5 mph - 0.02 in Rain Light Rain
2:53 AM 60.8 °F 55.4 °F 82% 29.53 in 6.0 mi East 16.1 mph - N/A Rain Rain
3:00 AM 60.8 °F 55.4 °F 82% 29.52 in 5.0 mi ENE 12.7 mph - 0.00 in Rain Light Rain
3:33 AM 60.8 °F 55.4 °F 82% 29.52 in 6.0 mi ENE 11.5 mph - 0.00 in Rain Light Rain
3:53 AM 60.1 °F 57.0 °F 90% 29.52 in 5.0 mi NE 10.4 mph - 0.01 in Rain Light Rain
4:20 AM 59.0 °F 55.4 °F 88% 29.51 in 8.0 mi NNE 9.2 mph - 0.00 in   Overcast
4:48 AM 59.0 °F 55.4 °F 88% 29.51 in 10.0 mi NNE 9.2 mph - 0.00 in   Overcast
4:53 AM 59.0 °F 55.9 °F 90% 29.50 in 10.0 mi NE 9.2 mph - 0.00 in   Overcast
5:53 AM 57.2 °F 55.4 °F 94% 29.49 in 6.0 mi ENE 8.1 mph - N/A Rain Light Rain
6:14 AM 57.2 °F 55.4 °F 94% 29.49 in 5.0 mi NE 9.2 mph - 0.01 in   Overcast
6:31 AM 57.2 °F 55.4 °F 94% 29.49 in 3.0 mi NNE 10.4 mph - 0.01 in Rain Light Rain
6:53 AM 57.0 °F 55.0 °F 93% 29.48 in 3.0 mi NNE 8.1 mph - 0.03 in Rain Light Rain
7:05 AM 57.2 °F 55.4 °F 94% 29.48 in 2.0 mi NE 8.1 mph - 0.00 in Rain Light Rain
7:26 AM 57.2 °F 55.4 °F 94% 29.48 in 3.0 mi NE 8.1 mph - 0.00 in   Overcast
7:38 AM 57.2 °F 55.4 °F 94% 29.48 in 8.0 mi NE 6.9 mph - 0.00 in Rain Light Rain
7:53 AM 57.0 °F 54.0 °F 89% 29.47 in 7.0 mi ENE 8.1 mph - 0.00 in Rain Light Rain
8:21 AM 57.2 °F 53.6 °F 88% 29.48 in 1.8 mi East 6.9 mph - 0.03 in Rain Rain
8:36 AM 57.2 °F 53.6 °F 88% 29.48 in 2.5 mi East 8.1 mph - 0.08 in Rain Light Rain
8:48 AM 57.2 °F 53.6 °F 88% 29.48 in 3.0 mi East 8.1 mph - 0.11 in Rain Rain
8:53 AM 57.0 °F 54.0 °F 89% 29.47 in 3.0 mi East 6.9 mph - 0.12 in Rain Rain
9:12 AM 57.2 °F 53.6 °F 88% 29.47 in 4.0 mi East 6.9 mph - 0.02 in Rain Light Rain
9:39 AM 57.2 °F 53.6 °F 88% 29.47 in 5.0 mi East 6.9 mph - 0.03 in Rain Light Rain
9:53 AM 57.9 °F 55.0 °F 90% 29.47 in 5.0 mi East 4.6 mph - 0.04 in Rain Light Rain
10:30 AM 57.2 °F 55.4 °F 94% 29.45 in 1.8 mi East 5.8 mph - 0.00 in   Overcast
10:53 AM 57.9 °F 55.0 °F 90% 29.45 in 1.2 mi East 10.4 mph - 0.01 in Rain Light Rain
11:20 AM 57.2 °F 55.4 °F 94% 29.45 in 1.8 mi East 9.2 mph - 0.03 in Rain Light Rain
11:25 AM 57.2 °F 55.4 °F 94% 29.45 in 3.0 mi East 12.7 mph - 0.03 in Rain Light Rain
11:37 AM 57.2 °F 55.4 °F 94% 29.45 in 5.0 mi East 9.2 mph - 0.03 in Rain Light Rain
11:48 AM 57.2 °F 55.4 °F 94% 29.45 in 2.0 mi East 12.7 mph - 0.03 in Rain Light Rain
11:53 AM 57.9 °F 55.0 °F 90% 29.45 in 2.0 mi East 12.7 mph - 0.03 in Rain Light Rain
12:11 PM 57.2 °F 55.4 °F 94% 29.44 in 4.0 mi East 9.2 mph - 0.00 in Rain Light Rain
12:33 PM 59.0 °F 55.4 °F 88% 29.44 in 10.0 mi East 10.4 mph - 0.01 in   Overcast
12:53 PM 59.0 °F 55.0 °F 87% 29.44 in 10.0 mi East 9.2 mph - 0.01 in Rain Light Rain
1:01 PM 59.0 °F 55.4 °F 88% 29.44 in 10.0 mi East 9.2 mph - N/A Rain Light Rain
1:10 PM 59.0 °F 55.4 °F 88% 29.44 in 10.0 mi East 9.2 mph - 0.00 in Rain Light Rain
1:53 PM 60.1 °F 55.9 °F 86% 29.45 in 8.0 mi East 8.1 mph - 0.02 in Rain Light Rain
2:08 PM 59.0 °F 55.4 °F 88% 29.44 in 2.5 mi East 8.1 mph - 0.05 in Rain Rain
2:13 PM 59.0 °F 55.4 °F 88% 29.44 in 3.0 mi East 9.2 mph - 0.06 in Rain Rain
2:24 PM 59.0 °F 55.4 °F 88% 29.44 in 4.0 mi East 9.2 mph - 0.08 in Rain Light Rain
2:53 PM 60.1 °F 57.0 °F 90% 29.45 in 6.0 mi East 8.1 mph - 0.10 in Rain Light Rain
3:53 PM 61.0 °F 57.0 °F 87% 29.45 in 9.0 mi East 12.7 mph - 0.05 in Rain Light Rain
4:14 PM 60.8 °F 57.2 °F 88% 29.44 in 6.0 mi East 9.2 mph - 0.02 in Rain Light Rain
4:27 PM 60.8 °F 57.2 °F 88% 29.44 in 5.0 mi East 10.4 mph - 0.05 in Rain Light Rain
4:36 PM 60.8 °F 57.2 °F 88% 29.44 in 5.0 mi East 11.5 mph - 0.06 in Rain Light Rain
4:53 PM 61.0 °F 57.0 °F 87% 29.44 in 8.0 mi East 12.7 mph - 0.07 in Rain Light Rain
5:04 PM 60.8 °F 57.2 °F 88% 29.44 in 6.0 mi East 11.5 mph - 0.01 in Rain Light Rain
5:15 PM 60.8 °F 57.2 °F 88% 29.45 in 5.0 mi East 15.0 mph - 0.03 in Rain Light Rain
5:53 PM 60.1 °F 57.0 °F 90% 29.46 in 10.0 mi East 15.0 mph - 0.06 in Rain Light Rain
6:20 PM 60.8 °F 57.2 °F 88% 29.46 in 10.0 mi ENE 15.0 mph - 0.00 in   Overcast
6:29 PM 60.8 °F 57.2 °F 88% 29.46 in 4.0 mi ENE 12.7 mph - N/A Rain Light Rain
6:38 PM 60.8 °F 57.2 °F 88% 29.46 in 8.0 mi ENE 12.7 mph - 0.00 in Rain Light Rain
6:53 PM 60.1 °F 57.0 °F 90% 29.47 in 10.0 mi ENE 12.7 mph - 0.00 in Rain Light Rain
7:12 PM 60.8 °F 57.2 °F 88% 29.47 in 10.0 mi ENE 13.8 mph - 0.00 in   Mostly Cloudy
7:53 PM 61.0 °F 57.0 °F 87% 29.48 in 10.0 mi ENE 13.8 mph - 0.00 in   Mostly Cloudy
8:02 PM 60.8 °F 57.2 °F 88% 29.48 in 10.0 mi ENE 15.0 mph - N/A   Mostly Cloudy
8:53 PM 60.8 °F 57.2 °F 88% 29.49 in 10.0 mi East 16.1 mph - N/A   Mostly Cloudy
9:53 PM 60.1 °F 55.0 °F 83% 29.52 in 10.0 mi East 15.0 mph - N/A   Mostly Cloudy
10:02 PM 60.8 °F 55.4 °F 82% 29.52 in 10.0 mi East 18.4 mph - N/A   Overcast
10:16 PM 59.0 °F 55.4 °F 88% 29.52 in 10.0 mi East 17.3 mph - N/A   Overcast
10:53 PM 57.9 °F 53.1 °F 84% 29.54 in 10.0 mi ENE 13.8 mph - N/A   Mostly Cloudy
11:26 PM 57.2 °F 53.6 °F 88% 29.54 in 10.0 mi ENE 15.0 mph - N/A   Overcast
11:53 PM 57.0 °F 52.0 °F 83% 29.55 in 10.0 mi ENE 16.1 mph - N/A   Overcast